Zurück zum Katalog

NAVSTAR 27

USA 84

AktivNavigationMEO
NORAD 22108·PAYLOAD·🇺🇸 United States

Gestartet Sep 9, 1992 von Cape Canaveral Space Force Station

Loading…

Nächste Überflüge (nächste 24 Stunden)

TLE

AktuellSource: Space-Track

Epoche: Sep 13, 2026, 04:22 UTC

1 22108U 92058A   26256.18253879  .00000010  00000-0  00000-0 0  9992
2 22108  54.6682 163.8829 0017876  47.8028 312.3928  1.87561029244671

Verfolge NAVSTAR 27 in Echtzeit mit AllMySat

Download on the App Store